Station SLXA2 - Salmon Landing, AK Image indicating link to RSS feed of recent meteorological observations for station SLXA2


Conditions at SLXA2 as of
(2:03 pm AKDT)
2203 GMT on 05/26/2024:
     

Click on the graph icon in the table below to see a time series plot of the last five days of that observation.

5-day plot - Wind Direction Wind Direction (WDIR):ESE ( 120 deg true )
5-day plot - Wind Speed Wind Speed (WSPD): 15 kts
5-day plot - Wind Gust Wind Gust (GST): 23 kts
5-day plot - Atmospheric Pressure Atmospheric Pressure (PRES):29.66 in
5-day plot - Air Temperature Air Temperature (ATMP): 47.3 °F
5-day plot - Dew Point Dew Point (DEWP): 42.6 °F
5-day plot - Wind Chill Wind Chill (CHILL): 40.6 °F
5-day plot - Wind Speed at 10 Meters Wind Speed at 10 meters (WSPD10M): 14 kts
5-day plot - Wind Speed at 20 Meters Wind Speed at 20 meters (WSPD20M): 16 kts
5-day plot -  Wind Speed, Wind Gust and Atmospheric Pressure Combined plot of Wind Speed, Gust, and Air Pressure
Previous observations
TIME
(AKDT)
5-day plot - Wind Direction
WDIR
 
5-day plot - Wind Speed
WSPD
kts
5-day plot - Wind Gust
GST
kts
5-day plot - Wave Height
WVHT
ft
5-day plot - Dominant Wave Period
DPD
sec
5-day plot - Average Wave Period
APD
sec
5-day plot - Mean Wave Direction
MWD
 
5-day plot - Atmospheric Pressure
PRES
in
5-day plot - Pressure Tendency
PTDY
in
5-day plot - Air Temperature
ATMP
°F
5-day plot - Water Temperature
WTMP
°F
5-day plot - Dew Point
DEWP
°F
5-day plot - Salinity
SAL
psu
5-day plot - Visibility
VIS
nmi
5-day plot - Tide (above MLLW)
TIDE
ft
2024-05-26 01:53 pm SE 14 21----29.66- 47.8- 43.3---
2024-05-26 01:43 pm SE 12 28----29.66- 47.5- 43.0---
2024-05-26 01:33 pmESE 13 20----29.66- 47.3- 43.3---
2024-05-26 01:23 pmESE 14 21----29.65- 47.5- 43.7---
2024-05-26 01:13 pm S 9 14----29.65- 47.3- 43.7---
2024-05-26 01:03 pmSSE 8 12----29.65- 46.8- 43.2---
2024-05-26 12:53 pm SE 8 11----29.65- 46.6- 43.0---
2024-05-26 12:43 pmSSE 8 12----29.65- 47.1- 43.7---
2024-05-26 12:33 pmSSE 7 11----29.65- 47.1- 43.7---
2024-05-26 12:23 pm SE 7 11----29.65- 47.1- 43.7---
2024-05-26 12:13 pm SE 7 12----29.65- 46.9- 43.5---
2024-05-26 12:03 pmSSE 7 10----29.65- 46.8- 43.3---
2024-05-26 11:53 amSSE 7 12----29.64- 46.6- 43.0---
2024-05-26 11:43 amSSE 8 13----29.64- 46.2- 42.6---
2024-05-26 11:33 am SE 7 11----29.64- 46.0- 43.0---
2024-05-26 11:23 amESE 6 10----29.63- 46.0- 43.0---
2024-05-26 11:13 amESE 7 11----29.63- 46.0- 42.8---
2024-05-26 11:03 amESE 7 12----29.63- 46.0- 42.6---
2024-05-26 10:53 am SE 9 15----29.63- 46.2- 42.8---
2024-05-26 10:43 am SE 7 14----29.63- 46.4- 42.8---
2024-05-26 10:33 amSSE 11 21----29.62- 46.8- 43.0---
2024-05-26 10:23 amSSE 13 19----29.62- 47.3- 43.5---
2024-05-26 10:13 am SE 14 22----29.61- 47.5- 43.9---
2024-05-26 10:03 am SE 15 24----29.61- 47.1- 43.5---
2024-05-26 09:53 am SE 13 21----29.61- 46.8- 43.2---
2024-05-26 09:43 am SE 13 21----29.61- 46.9- 43.2---
2024-05-26 09:33 am SE 14 22----29.60- 46.9- 43.2---
2024-05-26 09:23 am SE 14 22----29.60- 47.1- 42.8---
2024-05-26 09:13 am SE 11 21----29.60- 47.3- 42.4---
2024-05-26 09:03 am SE 9 16----29.59- 47.5- 41.9---
2024-05-26 08:53 am SE 9 16----29.59- 47.7- 41.9---
2024-05-26 08:43 am SE 12 18----29.59- 47.5- 42.1---
2024-05-26 08:33 amSSE 10 15----29.59- 47.5- 42.6---
2024-05-26 08:23 am SE 11 17----29.59- 47.5- 42.6---
2024-05-26 08:13 am SE 11 16----29.59- 47.5- 42.6---
2024-05-26 08:03 am SE 12 18----29.59- 47.5- 42.6---
2024-05-26 07:53 am SE 13 20----29.58- 47.3- 42.6---
2024-05-26 07:43 amESE 12 21----29.58- 46.9- 42.4---
2024-05-26 07:33 amESE 14 24----29.58- 46.9- 42.4---
2024-05-26 07:23 am SE 11 17----29.58- 46.9- 42.3---
2024-05-26 07:13 am SE 11 17----29.58- 46.9- 41.9---
2024-05-26 07:03 am SE 10 16----29.58- 47.1- 41.7---
2024-05-26 06:53 amESE 9 15----29.57- 47.1- 41.9---
2024-05-26 06:43 amESE 10 17----29.57- 47.1- 41.7---
2024-05-26 06:33 amESE 14 22----29.57- 47.3- 41.7---
2024-05-26 06:23 amESE 10 18----29.56- 47.1- 41.5---
2024-05-26 06:13 amESE 11 19----29.56- 46.9- 41.5---
2024-05-26 06:03 amESE 13 22----29.56- 47.1- 41.4---
2024-05-26 05:53 amESE 13 26----29.56- 46.9- 41.4---
2024-05-26 05:43 amESE 13 21----29.56- 46.9- 41.5---
2024-05-26 05:33 amESE 16 28----29.56- 46.9- 41.5---
2024-05-26 05:23 amESE 14 25----29.56- 46.8- 41.5---
2024-05-26 05:13 amESE 14 23----29.56- 46.9- 41.4---
2024-05-26 05:03 amESE 16 27----29.55- 47.5- 41.2---
2024-05-26 04:53 amESE 16 28----29.55- 47.5- 41.2---
2024-05-26 04:43 amESE 14 27----29.55- 47.3- 41.0---
2024-05-26 04:33 amESE 15 26----29.55- 47.3- 41.2---
2024-05-26 04:23 amESE 16 29----29.55- 47.5- 41.0---
2024-05-26 04:13 amESE 16 28----29.55- 47.5- 41.0---
2024-05-26 04:03 amESE 18 29----29.55- 47.3- 41.0---
2024-05-26 03:53 amESE 16 29----29.56- 47.1- 41.0---
2024-05-26 03:43 amESE 16 32----29.56- 47.1- 41.0---
2024-05-26 03:33 amESE 15 26----29.56- 46.9- 40.8---
2024-05-26 03:23 amESE 16 28----29.56- 46.9- 40.8---
2024-05-26 03:13 amESE 16 29----29.56- 46.9- 41.0---
2024-05-26 03:03 amESE 13 26----29.56- 46.8- 41.0---
2024-05-26 02:53 amESE 16 30----29.57- 46.9- 41.2---
2024-05-26 02:43 amESE 12 24----29.57- 46.9- 41.0---
2024-05-26 02:33 amESE 12 23----29.57- 46.8- 41.0---
2024-05-26 02:23 amESE 13 23----29.57- 46.8- 41.0---
2024-05-26 02:13 amESE 14 24----29.57- 46.9- 41.0---
2024-05-26 02:03 amESE 15 30----29.57- 46.9- 41.2---
2024-05-26 01:53 amESE 15 25----29.57- 47.1- 41.2---
2024-05-26 01:43 amESE 13 22----29.57- 46.9- 41.0---
2024-05-26 01:33 amESE 14 23----29.57- 46.9- 41.2---
2024-05-26 01:23 amESE 12 20----29.57- 46.8- 41.0---
2024-05-26 01:03 amESE 13 24----29.58- 46.8- 41.0---
2024-05-26 12:53 amESE 14 25----29.58- 46.8- 41.0---
2024-05-26 12:43 amESE 15 29----29.58- 47.1- 40.6---
2024-05-26 12:33 amESE 14 25----29.58- 47.1- 40.6---
2024-05-26 12:23 amESE 14 27----29.58- 47.1- 40.5---
2024-05-26 12:13 amESE 13 22----29.58- 47.1- 40.6---
2024-05-26 12:03 amESE 16 26----29.58- 47.3- 40.6---
2024-05-25 11:53 pmESE 14 25----29.58- 47.3- 40.8---
2024-05-25 11:43 pmESE 12 21----29.59- 47.1- 41.0---
2024-05-25 11:33 pmESE 13 23----29.59- 47.3- 41.2---
2024-05-25 11:23 pmESE 13 21----29.59- 47.1- 41.0---
2024-05-25 11:13 pmESE 12 21----29.59- 47.1- 41.0---
2024-05-25 11:03 pmESE 13 23----29.59- 47.3- 40.8---
2024-05-25 10:53 pmESE 14 22----29.60- 47.3- 41.0---
2024-05-25 10:43 pmESE 12 23----29.60- 46.9- 41.0---
2024-05-25 10:33 pmESE 11 18----29.61- 46.9- 41.0---
2024-05-25 10:23 pmESE 12 22----29.61- 46.9- 41.0---
2024-05-25 10:13 pmESE 13 22----29.61- 46.9- 41.2---
2024-05-25 10:03 pmESE 12 24----29.62- 46.8- 41.4---
2024-05-25 09:53 pmESE 13 24----29.62- 46.9- 41.2---
2024-05-25 09:43 pmESE 13 21----29.62- 46.9- 41.0---
2024-05-25 09:33 pmESE 13 26----29.62- 46.8- 41.0---
2024-05-25 09:23 pmESE 15 28----29.62- 46.8- 41.2---
2024-05-25 09:13 pmESE 15 22----29.62- 46.8- 41.2---
2024-05-25 09:03 pmESE 12 23----29.62- 46.6- 41.4---
2024-05-25 08:53 pmESE 13 21----29.63- 46.8- 41.5---
2024-05-25 08:43 pmESE 12 21----29.63- 46.8- 41.5---
2024-05-25 08:33 pmESE 11 17----29.63- 46.8- 41.9---
2024-05-25 08:23 pmESE 12 18----29.64- 46.6- 41.9---
2024-05-25 08:13 pmESE 12 21----29.64- 46.8- 41.9---
2024-05-25 08:03 pmESE 12 19----29.64- 46.8- 41.7---
2024-05-25 07:53 pmESE 13 19----29.64- 46.8- 41.7---
2024-05-25 07:43 pmESE 14 20----29.65- 46.9- 41.5---
2024-05-25 07:33 pmESE 13 21----29.65- 46.8- 41.4---
2024-05-25 07:23 pmESE 13 21----29.65- 46.8- 41.4---
2024-05-25 07:13 pmESE 11 18----29.65- 46.8- 41.5---
2024-05-25 07:03 pmESE 12 18----29.66- 46.8- 41.5---
2024-05-25 06:53 pmESE 12 19----29.66- 46.6- 41.5---
2024-05-25 06:43 pmESE 11 17----29.66- 46.8- 41.4---
2024-05-25 06:33 pm SE 12 17----29.67- 46.8- 41.5---
2024-05-25 06:23 pmSSE 8 18----29.67- 46.4- 41.7---
2024-05-25 06:13 pmSSE 9 12----29.67- 46.4- 41.4---
2024-05-25 06:03 pmSSE 9 14----29.67- 46.6- 41.7---
2024-05-25 05:53 pmSSE 10 14----29.67- 46.6- 42.1---
2024-05-25 05:43 pmSSE 10 14----29.67- 46.8- 42.1---
2024-05-25 05:33 pmSSE 10 14----29.67- 46.9- 41.9---
2024-05-25 05:23 pmSSE 10 15----29.67- 47.1- 41.9---
2024-05-25 05:13 pmSSE 10 14----29.68- 47.1- 41.9---
2024-05-25 05:03 pmSSE 9 16----29.68- 46.9- 41.9---
2024-05-25 04:53 pmSSE 8 12----29.68- 46.8- 41.7---
2024-05-25 04:43 pmSSE 8 13----29.68- 46.6- 41.5---
2024-05-25 04:33 pmSSE 9 17----29.68- 46.6- 41.4---
2024-05-25 04:23 pmSSE 8 13----29.69- 46.6- 41.7---
2024-05-25 04:13 pmSSE 7 11----29.69- 46.6- 41.7---
2024-05-25 03:53 pmSSE 7 10----29.69- 46.2- 41.2---
2024-05-25 03:43 pmSSE 9 16----29.70- 46.2- 41.0---
2024-05-25 03:33 pmSSE 9 14----29.70- 46.0- 41.2---
2024-05-25 03:23 pmSSE 9 17----29.70- 46.2- 40.8---
2024-05-25 03:13 pmSSE 9 14----29.70- 46.2- 40.6---
2024-05-25 03:03 pmSSE 9 15----29.70- 46.0- 40.5---
2024-05-25 02:53 pmSSE 9 14----29.70- 46.0- 40.5---
2024-05-25 02:43 pmSSE 10 15----29.70- 46.2- 40.3---
2024-05-25 02:33 pmSSE 8 14----29.70- 46.2- 40.3---
2024-05-25 02:23 pmSSE 9 18----29.70- 46.2- 40.3---
2024-05-25 02:13 pm SE 10 20----29.70- 46.2- 40.1---
2024-05-25 02:03 pmSSE 9 16----29.70- 46.2- 40.5---
2024-05-25 01:53 pmSSE 9 15----29.70- 46.2- 40.5---